Tracking 30261 objects as of 18-Feb-2025
HD Live streaming from Space Station
objects crossing your sky now

ONEWEB-0536

Track ONEWEB-0536 now!
10-day predictions
ONEWEB-0536 is classified as:


NORAD ID: 54148
Int'l Code: 2022-138AM
Perigee: 1,187.2 km
Apogee: 1,190.6 km
Inclination: 87.9 °
Period: 109.0 minutes
Semi major axis: 7559 km
RCS: Unknown
Launch date: October 22, 2022
Source: United Kingdom (UK)
Launch site: SRIHARIKOTA (SRI)
Your satellite tracking list
Your tracking list is empty




NASA's NSSDC Master Catalog

Two Line Element Set (TLE):
1 54148U 22138AM  25048.90671854  .00000094  00000-0  20018-3 0  9994
2 54148  87.9300  10.8422 0002202  53.7707 306.3630 13.20771671115376
Source of the keplerian elements: AFSPC